Wind_Speed
11 11 11 10 8 6 4 3 3 5 6 7 6 6 6 5 5 5 5 4 4 4 5 6 8 9 10 11 10 9 8 7 7 7 7 7 7 8 9 10 10 10 9 9 9 9 8 7 7 7 7 8 8 9 9 10 11 12 12 12 12 12 12 11 11 12 13 15 17
10 10 11 11 10 10 9 7 4 2 3 4 4 3 3 3 4 4 5 4 4 3 2 2 4 6 7 8 9 8 8 8 7 7 6 6 7 8 8 9 8 8 7 7 7 7 7 7 7 8 8 9 9 9 10 10 10 10 10 10 10 11 10 10 10 10 11 13 15
10 9 10 10 10 11 11 11 10 7 5 4 2 2 2 4 6 7 8 7 7 6 5 3 1 3 6 7 8 8 9 9 9 8 6 6 6 6 7 7 7 7 7 7 7 7 8 9 9 9 10 10 10 10 10 10 9 9 9 9 9 9 9 9 9 10 10 11 13
9 9 9 10 10 10 11 12 11 10 8 6 4 4 4 6 8 9 10 10 9 9 8 7 5 3 3 5 6 7 8 8 8 8 7 6 5 4 4 5 6 7 7 8 8 9 9 10 10 10 10 10 10 10 10 10 9 8 8 8 7 7 7 7 8 8 9 10 11
10 9 9 9 9 10 10 11 12 11 9 7 6 6 7 8 8 9 10 11 11 11 10 8 7 6 4 3 4 4 5 6 6 6 6 6 5 4 4 4 5 6 8 9 10 10 11 11 11 11 11 11 11 11 10 10 9 9 8 8 7 7 7 8 8 8 9 10 11
11 10 9 9 9 9 10 11 11 11 9 8 8 8 9 8 9 9 10 11 11 11 10 10 9 8 6 5 4 4 3 3 4 5 5 5 5 4 4 4 5 7 9 10 11 11 11 12 12 12 12 11 11 11 11 10 10 10 9 9 9 9 9 10 10 11 12 12 13
10 10 9 9 9 9 10 11 10 9 9 9 9 10 9 9 9 9 9 9 9 10 10 9 9 8 6 5 5 4 4 3 3 4 5 5 5 5 6 6 7 9 10 11 11 11 11 12 12 12 11 11 11 10 11 11 11 11 11 10 10 10 11 11 12 13 13 14 14
9 9 9 9 9 10 10 10 9 8 9 9 9 9 8 8 8 8 7 7 8 8 8 8 7 6 5 4 4 3 3 3 3 3 4 4 5 5 6 7 8 9 10 10 10 10 10 11 11 10 10 10 10 10 10 11 11 11 11 11 11 11 11 12 12 13 13 14 14
9 8 8 9 10 10 9 8 8 8 9 9 8 8 7 7 7 7 7 7 8 7 6 6 5 4 3 2 2 2 2 2 2 2 3 3 4 5 6 7 8 9 9 9 9 9 9 9 9 8 8 8 8 9 10 10 10 11 11 12 12 12 12 12 12 12 12 13 13
9 8 8 9 10 9 8 8 9 9 8 8 8 7 7 7 7 7 7 7 6 6 6 6 5 3 2 1 0 2 3 3 3 2 2 2 3 4 5 6 7 8 8 8 8 7 7 7 7 7 7 8 8 8 9 10 10 10 11 12 12 12 12 12 12 12 12 12 12
8 8 8 9 9 9 8 9 9 9 8 8 7 6 6 6 7 7 7 6 5 6 7 7 5 4 3 2 2 2 3 3 4 3 3 2 0 1 3 4 5 5 5 5 4 4 4 5 6 6 7 7 8 8 9 9 9 10 11 11 11 12 12 12 11 11 11 11 11
7 6 6 7 8 8 8 9 9 9 8 7 6 6 6 6 6 6 5 4 5 6 6 6 5 4 4 3 3 3 3 3 3 3 3 2 2 2 2 2 2 2 1 2 2 3 4 5 5 6 6 6 7 7 8 8 9 9 10 11 11 11 12 12 11 10 10 10 10
6 5 5 6 6 7 7 8 8 8 7 6 6 5 5 5 5 4 4 4 5 5 5 5 4 5 5 5 4 3 3 3 2 1 1 2 2 2 1 0 1 1 1 2 2 3 4 4 4 4 4 5 5 6 6 7 8 9 10 10 10 10 11 11 10 10 9 9 9
5 5 5 5 5 6 6 7 7 7 7 6 6 5 5 5 4 4 4 4 5 5 5 5 5 6 5 5 4 3 2 1 1 1 1 1 1 2 2 2 3 3 3 3 3 3 3 3 3 3 3 4 4 4 5 5 6 7 8 8 9 9 9 9 9 8 8 9 8
5 5 5 5 5 5 6 6 7 7 7 6 6 5 4 4 5 5 5 5 6 6 6 6 6 6 5 4 3 2 2 2 2 2 2 2 3 3 4 4 4 4 4 4 4 4 4 4 4 4 4 4 4 3 3 4 4 5 6 6 6 7 7 7 7 7 7 8 7
6 6 5 5 5 5 6 6 6 6 6 6 5 5 5 5 6 6 6 6 6 6 6 6 5 4 3 3 4 4 3 3 3 3 3 4 4 4 4 5 5 5 4 4 4 4 4 4 4 4 4 4 3 2 2 2 3 3 4 4 4 5 5 6 6 6 6 6 6
7 7 6 6 5 5 6 6 6 6 6 5 5 5 6 6 6 6 6 6 6 5 5 4 3 2 3 4 4 4 3 3 3 4 4 4 4 4 4 4 4 3 3 3 3 3 3 3 3 3 3 3 2 2 1 1 2 2 2 2 3 4 4 5 5 5 6 5 5
7 7 7 6 6 6 6 6 6 6 6 5 5 6 6 6 6 6 5 5 4 4 4 3 3 2 3 4 4 3 3 3 3 3 3 3 3 3 3 3 3 3 3 3 3 3 3 3 3 3 2 2 1 1 1 1 1 1 2 2 2 3 4 4 5 5 5 5 4
7 7 7 7 7 7 6 6 5 5 5 5 6 6 5 5 5 5 4 4 4 4 4 4 4 4 4 4 3 3 3 4 4 4 4 3 3 3 3 3 4 4 4 4 4 4 4 4 4 3 3 2 2 1 1 1 1 1 1 1 2 2 3 3 4 4 4 3 3
7 7 8 7 7 6 6 6 6 5 5 5 5 5 5 5 5 5 5 5 5 5 5 5 5 5 4 4 3 4 5 5 5 5 5 4 4 4 5 5 5 6 5 5 5 5 5 5 5 4 4 3 3 3 3 3 3 3 3 2 2 2 2 3 3 3 2 3 3
7 7 7 6 6 5 5 5 5 5 5 5 6 6 6 6 6 7 7 7 7 6 6 6 6 6 5 4 5 6 6 6 6 6 6 6 7 7 7 7 8 8 7 7 7 6 6 6 6 5 5 5 5 5 5 5 6 6 5 5 5 5 4 4 4 3 4 4 5
6 6 6 5 5 5 5 5 6 6 7 7 7 7 7 8 9 9 9 8 7 7 7 7 7 7 6 6 6 7 7 7 7 8 9 10 10 10 10 9 10 10 9 9 8 8 8 8 7 6 6 6 7 7 7 7 7 7 7 7 7 7 6 6 6 6 6 6 5
6 6 6 6 7 7 7 7 7 8 8 9 9 9 9 10 10 10 10 9 8 8 8 8 8 8 8 8 8 9 9 10 11 12 12 13 13 13 13 12 12 12 11 10 9 9 9 9 8 8 7 8 8 8 8 8 8 8 8 8 8 8 8 7 7 7 7 6 6
7 7 8 8 8 8 8 8 9 10 10 11 11 11 11 11 11 10 10 9 9 9 9 10 10 10 10 11 11 12 13 14 15 16 16 16 17 17 16 16 15 15 14 12 10 9 9 9 9 8 8 9 9 9 9 8 8 8 9 9 9 8 8 7 7 7 7 7 7
8 9 9 9 9 9 9 10 11 11 12 12 11 11 11 11 10 10 10 11 11 12 12 13 13 13 14 14 15 15 16 17 18 18 19 19 19 19 19 18 18 17 15 13 11 9 8 7 7 8 8 8 9 9 9 8 8 8 8 8 8 8 8 7 7 7 7 7 7
10 10 10 10 10 10 11 11 11 11 11 10 10 10 10 10 10 11 12 13 13 14 15 15 16 16 17 18 18 19 19 19 19 19 20 20 20 19 19 18 17 16 14 12 11 9 8 7 7 6 7 7 8 9 9 9 8 8 7 7 7 7 7 7 7 6 6 6 6
10 11 11 11 11 11 11 10 10 10 10 9 9 10 10 10 11 12 14 15 15 16 17 18 18 18 19 19 20 20 19 19 19 19 19 19 19 19 18 17 15 14 12 11 10 10 9 8 6 6 6 6 7 8 9 9 9 8 8 7 7 7 7 6 6 6 5 4 4
10 10 11 11 11 11 10 10 10 10 9 9 10 10 11 12 13 15 15 16 16 17 17 17 18 18 18 18 19 19 19 18 18 18 18 18 18 17 17 15 14 13 12 11 10 10 9 8 7 6 6 6 6 7 8 9 9 8 8 8 7 6 6 5 5 4 4 3 2
8 9 9 10 11 10 10 10 10 10 10 11 11 12 13 14 15 16 16 16 16 16 16 16 17 17 18 18 18 19 19 18 18 18 18 18 18 17 16 15 14 13 12 11 11 10 10 8 7 6 5 5 6 6 7 8 8 8 8 7 7 6 5 5 4 3 3 2 2
7 8 9 10 11 11 11 11 12 12 12 13 13 14 14 14 15 15 15 15 15 16 16 17 17 18 18 19 19 19 18 18 17 17 18 18 18 17 16 15 14 13 12 11 11 10 9 8 7 6 5 5 6 6 7 7 7 7 7 7 6 6 5 5 5 4 4 3 3
7 8 9 10 11 12 12 13 13 13 13 13 14 14 14 14 14 14 15 15 16 16 16 17 18 18 18 18 18 18 18 17 17 17 17 17 17 17 16 15 14 13 12 11 11 10 9 8 7 6 6 6 6 6 6 7 7 7 7 7 7 7 6 6 6 6 6 5 5
8 9 10 11 12 12 13 13 13 13 13 13 13 14 14 15 15 15 15 15 16 16 16 17 17 17 17 17 17 17 17 16 16 16 17 17 17 16 16 15 14 12 11 11 10 10 9 8 7 6 6 7 7 7 7 7 8 8 8 8 8 7 7 7 7 7 7 7 7
9 9 10 11 12 12 13 13 13 13 14 14 14 15 15 15 15 15 15 15 15 16 16 16 16 16 16 16 16 16 16 16 16 16 16 17 17 17 16 15 13 12 11 11 10 10 9 8 8 8 8 8 8 8 8 8 8 8 8 8 7 7 6 6 6 6 6 7 7
9 10 11 12 12 12 12 13 13 13 14 14 14 15 15 15 15 15 15 15 15 15 15 15 15 15 14 14 15 15 15 15 15 15 16 16 16 16 16 15 13 12 11 11 10 9 9 9 9 9 9 9 9 8 8 8 8 8 8 8 8 7 6 6 6 6 6 6 6
10 11 12 12 12 12 13 13 13 13 14 14 14 14 14 14 14 14 14 13 13 13 13 13 12 12 12 12 13 13 14 14 14 14 14 15 15 16 16 15 13 12 11 11 10 10 10 10 10 10 9 9 9 9 9 9 9 10 10 9 9 9 9 8 8 7 6 5 4
11 11 12 12 12 13 13 13 13 13 13 13 13 13 13 13 13 13 12 12 12 12 12 12 11 11 11 11 11 11 11 12 12 12 13 13 14 15 15 15 14 12 12 12 12 12 12 12 11 11 11 11 11 11 11 11 11 11 11 11 11 11 11 11 10 9 7 6 4
11 11 12 12 13 13 13 13 13 13 13 13 13 13 12 12 12 11 11 11 11 12 12 11 11 10 10 10 10 10 10 9 10 11 11 12 13 15 16 15 14 13 13 13 13 14 14 13 13 13 12 13 13 13 13 12 12 12 12 11 11 11 11 10 10 9 9 8 6
10 11 12 12 13 13 13 13 13 13 13 13 13 12 12 11 11 10 10 10 11 12 12 11 11 11 10 10 11 11 11 10 10 11 12 13 14 15 16 16 15 14 12 12 12 12 12 12 12 12 12 12 12 12 12 12 11 11 11 10 10 9 9 9 8 9 9 9 8
9 11 12 12 13 13 13 13 13 13 13 13 12 11 11 10 10 10 10 11 11 12 12 12 12 11 11 11 12 13 13 13 13 14 14 15 15 15 15 15 14 12 11 9 9 8 9 9 10 10 10 10 10 10 10 10 10 9 9 8 8 7 7 6 7 7 8 8 8
9 10 12 12 13 13 13 13 13 12 12 11 11 11 10 10 10 10 11 11 12 12 12 12 13 13 13 13 14 15 15 15 15 15 15 15 15 14 14 13 12 11 10 8 7 7 7 7 7 7 8 8 8 8 8 8 8 8 7 7 6 5 5 5 5 5 6 7 7
9 10 11 12 12 13 13 13 12 11 10 10 10 10 9 10 10 11 12 12 12 12 13 13 14 14 14 15 15 15 16 15 15 14 14 14 14 13 13 12 11 10 9 8 8 7 7 7 7 6 6 6 6 6 5 5 6 6 6 6 5 5 4 4 4 4 5 5 6
Wind_Direction
40 41 43 44 43 38 23 346 299 287 286 287 295 306 317 329 343 353 357 354 342 321 299 282 270 263 259 258 257 256 253 246 240 240 244 250 254 256 257 260 263 261 257 254 254 257 264 273 284 294 298 297 295 291 285 280 276 275 278 285 293 299 301 301 300 297 292 288 285
33 35 39 42 45 46 46 43 30 349 305 298 301 314 338 4 21 29 35 39 38 33 11 300 265 256 252 250 249 247 243 237 232 233 239 247 254 257 258 259 259 257 253 251 253 256 262 270 277 283 286 287 286 284 282 282 281 283 286 292 298 301 302 300 298 294 289 284 282
26 29 32 35 36 38 39 41 40 37 29 14 1 15 50 62 65 67 69 69 70 73 79 90 160 230 241 242 240 238 236 236 235 234 235 239 248 256 260 258 256 254 253 252 254 258 263 269 275 279 281 282 281 280 279 281 284 286 289 293 297 300 300 298 296 292 287 282 279
22 23 26 29 31 34 37 39 38 35 32 32 47 72 82 80 77 78 78 78 78 80 84 92 107 149 207 224 226 226 227 230 232 231 227 224 227 238 250 256 255 253 253 255 258 263 268 272 276 278 278 278 278 278 280 283 287 289 291 294 296 296 295 292 288 282 276 271 270
18 19 22 25 28 34 38 39 36 36 38 43 59 76 84 82 80 79 79 79 79 81 87 94 99 107 123 153 178 193 204 214 220 223 220 211 203 205 222 244 255 259 260 262 265 268 272 274 275 275 275 277 280 283 287 291 292 291 291 291 290 286 281 275 268 261 256 254 253
16 17 21 25 29 33 34 33 33 39 48 56 65 73 77 77 75 75 75 78 81 87 93 99 101 104 108 116 127 141 157 178 199 212 217 215 212 213 221 241 259 267 270 271 272 274 275 275 274 275 277 281 285 290 294 295 293 289 285 281 277 275 271 266 261 256 252 249 247
16 17 20 25 30 31 29 29 35 49 63 69 72 73 74 73 73 73 74 78 82 88 94 101 107 113 118 124 131 139 151 169 189 208 219 227 234 240 250 261 269 271 271 271 273 275 276 277 277 278 281 284 287 289 290 289 287 284 281 276 272 270 268 265 263 260 256 254 252
20 21 22 25 26 26 26 31 45 63 75 78 77 76 75 74 73 72 72 72 73 76 83 92 101 112 123 132 139 149 163 180 194 207 215 225 234 244 253 263 266 266 264 266 269 273 276 278 278 279 280 282 283 283 282 282 281 281 280 276 273 271 269 266 264 262 259 257 255
24 24 25 25 23 24 29 42 62 77 83 83 81 78 74 72 70 68 64 62 61 64 69 74 81 94 115 136 156 186 210 219 225 225 223 223 230 240 249 256 258 260 261 264 267 270 273 276 277 277 278 280 280 280 281 281 280 281 280 278 275 273 272 269 266 263 261 258 254
26 24 22 23 26 32 47 68 83 89 90 87 83 78 72 68 66 62 59 56 56 58 58 56 54 56 64 74 270 273 278 282 292 295 284 260 246 243 247 251 255 258 259 260 261 265 271 278 281 283 285 287 286 285 285 285 283 282 282 281 279 277 275 271 267 263 259 255 250
29 25 24 28 37 51 70 86 92 94 94 88 83 77 69 63 62 59 55 50 48 52 53 49 45 40 36 26 6 339 325 326 335 347 3 16 32 224 232 239 244 247 249 252 259 271 285 295 300 300 299 298 296 293 291 290 289 288 286 285 283 281 277 272 267 261 255 251 249
34 31 33 40 53 69 83 90 92 92 91 87 81 74 67 61 59 56 51 44 43 46 47 43 43 45 44 32 24 24 24 22 21 32 56 89 112 141 174 201 219 232 246 266 290 306 310 311 310 309 306 305 303 300 298 297 296 295 293 289 286 282 276 270 264 257 252 250 250
40 40 43 50 62 76 85 88 88 87 86 84 78 69 61 56 52 47 42 41 46 46 42 37 42 54 60 57 59 62 62 58 45 50 83 105 111 117 124 111 330 332 333 331 326 322 319 315 313 314 315 315 314 311 307 303 301 298 295 290 285 278 271 265 259 254 250 249 251
50 49 50 52 63 74 81 82 81 80 78 76 70 60 51 44 37 31 31 37 44 45 44 43 52 60 67 70 74 74 69 56 41 36 40 36 27 18 7 358 354 356 360 3 356 351 349 348 353 354 348 341 331 320 310 301 295 292 289 286 281 274 267 260 257 255 252 251 252
58 58 56 55 62 68 72 74 72 69 66 64 58 49 38 30 21 19 25 34 41 45 46 49 58 65 74 88 96 96 91 90 79 63 48 35 29 25 21 17 16 18 23 28 28 26 24 23 21 16 8 357 342 324 307 294 285 282 281 281 278 272 264 259 257 256 256 255 252
61 61 60 59 61 62 62 63 60 56 53 51 45 35 25 21 15 17 26 38 44 49 52 51 53 61 84 110 110 106 103 100 88 73 61 53 45 37 32 29 29 28 28 27 27 29 27 23 19 13 9 3 351 335 311 290 278 273 272 274 272 267 261 257 254 253 254 254 249
57 58 59 60 60 57 53 51 49 45 41 38 31 26 25 25 24 26 34 43 48 52 53 52 49 63 98 108 101 95 89 84 75 66 58 52 47 40 35 33 34 35 34 31 29 30 31 28 25 24 20 14 4 346 319 288 270 264 264 263 260 256 252 249 245 244 243 243 237
53 51 51 52 53 50 45 41 38 35 32 31 28 29 34 40 43 45 49 55 58 62 65 67 74 89 96 94 88 81 77 76 73 67 60 56 50 43 41 47 56 61 63 60 57 57 60 63 64 64 61 53 40 3 281 254 246 242 245 247 249 248 244 238 235 236 236 233 224
54 51 48 47 46 44 41 38 35 32 32 34 35 43 54 61 65 68 72 80 85 88 90 94 97 94 88 83 85 91 95 92 89 86 81 76 72 67 68 74 80 80 76 75 77 80 85 90 94 97 100 105 117 131 156 169 170 172 184 207 224 231 228 223 223 228 232 226 208
52 51 51 49 46 44 43 43 42 41 43 47 53 60 68 77 85 90 92 92 94 97 99 101 101 97 93 92 106 114 111 104 99 95 93 91 89 87 86 85 87 85 82 81 81 84 88 92 95 97 100 104 112 121 130 135 136 136 139 143 151 163 176 184 192 200 201 190 173
50 51 52 52 49 47 49 54 60 65 68 71 73 76 80 86 93 96 95 94 95 97 100 101 102 102 104 111 117 115 110 104 99 96 95 95 93 90 88 87 87 86 83 81 81 82 85 87 89 94 99 105 111 118 123 128 130 131 132 132 133 136 140 143 145 146 146 146 143
55 58 61 63 65 68 74 83 89 91 91 90 89 89 90 93 96 97 98 98 100 101 100 98 96 95 96 100 104 104 103 101 97 95 94 94 93 92 91 90 88 87 84 82 82 85 89 92 95 101 107 113 116 119 122 125 127 129 129 129 128 128 129 129 129 129 130 129 128
65 71 76 81 84 87 90 93 95 97 98 98 99 99 99 99 99 100 101 102 101 98 93 89 85 82 82 84 90 94 97 97 95 94 93 94 93 93 91 90 88 86 85 86 89 95 100 104 107 111 115 117 118 118 119 121 123 124 125 125 124 123 123 124 126 127 128 127 124
77 80 83 86 88 91 93 96 98 99 99 99 100 101 101 101 101 101 100 96 91 87 84 83 83 84 85 86 89 93 96 97 97 96 94 93 91 88 86 84 82 82 83 85 90 96 102 108 113 116 118 119 118 118 118 119 121 122 123 123 123 123 123 125 129 133 136 137 134
82 84 86 89 92 94 96 97 98 98 97 98 100 101 101 101 100 97 94 89 87 86 87 89 90 92 93 94 96 97 99 99 99 98 95 92 89 85 82 80 78 79 81 84 87 88 90 96 106 114 119 120 119 119 119 120 122 123 124 126 127 129 129 131 135 142 148 150 148
86 87 89 92 94 95 96 96 97 97 98 99 100 100 100 99 97 95 93 92 93 94 96 97 97 98 99 101 101 101 100 100 100 99 97 95 92 90 87 85 84 83 84 86 87 87 88 91 99 109 116 118 119 120 121 123 125 127 129 131 134 137 140 142 145 149 155 161 163
88 89 91 94 95 95 95 96 96 97 98 99 99 99 99 99 99 98 98 99 100 101 101 100 99 100 101 102 101 100 99 99 100 99 99 97 96 94 92 91 89 88 87 87 88 90 92 96 103 112 116 118 119 120 123 126 129 133 135 136 139 142 145 149 150 153 157 164 173
91 92 94 96 95 95 96 97 96 96 97 98 100 101 102 103 103 104 104 104 105 104 103 102 101 101 101 101 100 100 100 99 99 98 97 96 93 91 88 86 84 83 83 85 88 91 94 97 105 114 119 118 118 120 123 127 132 135 137 139 141 142 143 143 144 147 151 157 168
96 98 99 99 98 99 99 100 99 100 101 102 103 104 105 105 105 107 108 109 108 107 106 106 106 105 104 103 103 103 102 101 100 98 97 94 90 87 85 84 83 83 84 87 90 93 95 98 103 111 116 115 114 118 123 127 131 134 136 136 136 135 133 129 127 127 129 131 137
104 105 105 104 103 104 104 104 104 105 106 107 106 106 105 105 106 109 111 112 111 111 111 112 112 110 108 108 108 107 105 104 103 100 97 94 91 89 88 87 86 87 88 90 93 95 97 99 103 108 112 112 112 115 120 125 128 129 128 126 122 118 113 108 105 101 96 92 90
111 111 110 109 108 108 108 109 110 111 111 110 109 107 107 107 108 111 113 115 115 116 117 117 115 113 113 113 112 110 108 107 104 101 98 96 93 92 92 90 90 89 89 91 92 93 95 96 100 105 109 109 110 112 116 120 120 117 113 108 104 100 97 94 91 87 83 78 75
115 115 114 113 111 112 113 114 114 115 114 112 110 109 109 109 111 113 116 117 118 119 119 119 117 116 116 115 114 111 109 105 102 99 98 97 96 95 93 91 90 89 89 89 90 90 90 91 94 98 100 101 101 103 106 108 107 104 101 98 96 95 94 93 91 87 83 78 74
119 118 117 115 115 115 116 116 116 116 115 113 111 111 111 113 115 116 118 120 121 121 120 120 119 118 117 116 114 110 107 104 102 100 99 99 98 96 93 91 89 88 88 88 89 88 88 88 89 91 93 94 94 97 100 101 101 101 100 99 98 98 98 97 94 90 86 81 77
120 120 118 117 117 118 118 118 118 118 117 115 114 114 116 118 119 119 122 124 127 127 126 125 123 122 120 117 114 111 108 105 104 103 103 102 100 98 95 92 90 89 89 89 89 89 88 88 89 92 93 95 96 99 102 103 103 102 101 99 97 95 92 88 84 80 77 76 75
122 121 119 119 119 120 120 121 121 121 120 117 117 118 121 123 125 125 128 131 132 131 129 127 125 121 118 113 110 108 108 107 106 106 106 106 105 102 99 96 94 91 90 90 90 89 89 89 91 94 96 98 99 100 101 101 100 97 95 92 87 82 76 70 64 59 55 54 55
125 124 123 122 122 123 123 124 125 125 123 121 121 122 125 128 131 134 136 137 134 130 127 124 120 116 112 108 104 102 103 105 107 108 109 110 109 107 103 100 97 93 90 90 89 88 87 88 89 91 92 94 94 94 94 93 91 89 85 81 77 72 66 60 54 48 43 38 33
131 130 129 127 126 126 127 129 129 127 125 125 126 128 130 133 136 139 140 138 132 128 125 121 116 110 105 101 99 97 95 96 102 107 110 110 109 108 105 102 98 93 89 87 85 84 83 83 83 84 85 86 86 85 84 83 81 78 74 70 67 62 58 52 47 42 38 36 32
138 137 136 134 133 133 133 134 132 129 127 128 129 132 135 138 138 139 138 134 129 125 121 116 109 103 99 96 95 94 94 95 99 103 105 106 105 104 103 101 97 93 87 83 81 79 78 76 74 74 74 75 75 74 73 72 70 68 64 61 58 54 50 45 39 34 32 32 32
148 145 143 140 139 137 136 135 133 132 131 132 133 136 138 139 138 137 134 130 124 119 115 110 105 102 100 100 100 100 100 101 102 103 103 103 102 101 99 97 94 90 85 80 76 75 73 68 63 62 61 63 64 65 66 65 65 64 61 58 54 51 46 40 33 27 25 25 27
156 152 147 142 140 137 136 134 134 135 137 138 137 139 140 140 138 135 132 126 120 114 110 106 105 104 104 104 104 104 104 103 103 102 101 100 99 98 95 93 91 88 84 79 75 74 74 71 65 59 56 59 62 64 66 68 69 67 65 61 57 52 46 39 31 24 19 17 18
143 144 142 138 136 135 134 133 134 136 139 141 140 139 139 137 135 133 128 122 116 111 108 107 107 107 107 106 105 105 103 102 100 98 96 95 95 95 94 93 92 89 85 80 75 74 75 75 74 69 65 68 70 72 74 75 75 70 65 60 54 49 43 35 25 16 9 7 9
Height
792 792 791 791 790 790 790 790 790 790 790 790 790 790 790 790 790 789 789 789 789 789 789 789 790 790 791 791 792 792 792 793 793 794 794 795 795 795 795 795 795 796 796 797 797 798 798 799 799 799 800 800 800 800 800 800 801 802 803 803 803 803 804 804 804 804 805 805 805
792 792 791 791 790 790 790 790 790 790 790 790 790 790 790 790 789 789 789 789 789 788 788 789 789 790 790 791 791 791 792 792 793 793 793 793 794 794 795 795 795 795 796 796 797 797 797 798 798 798 798 798 798 798 798 799 800 800 800 801 801 801 802 802 802 802 803 803 804
792 792 791 791 791 790 790 790 789 789 789 789 789 789 790 790 790 789 789 789 788 788 788 788 789 790 790 790 790 791 791 792 792 792 792 792 793 794 794 794 795 795 795 795 796 796 796 796 796 797 797 797 797 797 797 797 798 798 798 798 799 799 800 800 800 801 801 801 801
793 792 792 791 791 791 790 790 790 790 790 789 789 789 789 790 790 789 789 789 789 788 788 788 789 789 789 790 790 790 791 791 791 791 791 792 792 793 794 794 794 795 795 795 795 795 795 795 795 795 795 795 795 796 796 796 796 796 796 796 797 797 798 798 798 798 798 798 799
792 792 792 791 791 791 791 791 790 790 790 789 789 789 789 789 790 789 789 789 789 789 789 789 789 789 789 790 790 790 790 791 791 791 791 791 792 792 793 794 794 794 795 795 795 795 795 795 795 795 795 795 795 795 795 795 795 795 795 795 795 795 796 796 796 796 796 795 795
792 792 792 791 791 791 791 791 790 790 790 789 789 789 789 789 790 789 789 789 790 790 790 790 790 790 790 790 790 790 790 791 791 791 791 792 792 792 792 793 794 794 794 795 795 794 794 794 794 794 794 794 795 795 795 795 795 795 795 795 795 795 795 795 795 795 795 795 794
793 792 792 791 791 791 791 790 790 790 790 790 790 789 790 790 790 790 790 790 790 790 790 790 790 790 790 790 790 790 790 791 791 791 791 791 791 792 792 793 793 794 794 794 794 794 794 794 794 794 794 794 794 794 794 794 795 795 795 795 795 795 795 795 796 796 796 796 795
793 793 792 792 791 791 790 790 790 790 790 790 790 790 790 790 790 790 790 790 790 790 790 790 790 790 790 790 790 790 790 790 790 790 790 790 791 791 792 792 793 793 793 793 793 793 793 793 793 793 793 793 793 794 794 794 794 794 795 795 795 795 796 796 796 796 796 796 796
793 793 792 792 791 791 790 790 790 790 790 790 790 790 790 790 790 790 790 790 790 790 790 790 790 790 790 790 790 790 790 790 790 790 790 790 791 791 791 792 792 792 792 792 792 792 792 793 793 793 793 793 793 793 794 794 794 795 795 795 795 795 796 796 796 796 796 796 796
793 793 793 792 792 791 791 791 790 790 790 790 790 790 790 790 790 790 790 790 790 790 790 790 790 790 790 790 790 789 789 789 790 790 790 790 791 791 791 792 792 792 792 792 792 792 793 793 793 793 793 793 793 794 794 794 795 795 795 795 795 796 796 796 796 796 796 796 796
794 793 793 793 792 792 791 791 790 790 790 790 790 790 790 790 790 790 790 790 790 789 789 789 789 789 789 789 789 790 789 789 790 790 790 790 791 791 791 792 792 792 792 792 793 793 793 793 793 793 793 793 794 794 794 795 795 795 795 795 796 796 796 796 796 797 797 796 796
794 794 793 793 792 792 791 791 791 791 791 791 790 790 790 790 790 790 790 790 790 789 789 790 789 789 789 789 789 790 790 790 790 790 790 791 791 791 792 792 792 792 793 793 793 793 793 793 793 793 793 794 794 794 795 795 795 795 795 796 796 796 796 796 796 796 797 797 796
794 794 793 793 792 792 791 791 791 791 791 791 791 791 790 790 790 790 790 790 790 790 790 790 790 790 789 790 790 790 790 790 790 790 791 791 791 791 792 792 792 792 792 793 793 793 793 793 793 793 793 794 794 794 794 795 795 795 795 796 796 796 796 796 796 797 797 797 796
794 794 793 793 792 792 791 791 791 791 791 791 791 791 791 790 790 790 790 790 790 790 790 790 790 790 790 790 790 790 790 790 790 791 791 791 791 791 792 792 792 792 792 792 792 792 792 792 792 793 793 793 794 794 794 795 795 795 795 796 796 796 796 797 797 797 797 797 796
794 794 793 793 792 792 792 791 791 791 791 791 791 791 791 791 790 790 790 790 790 790 790 790 790 790 790 790 790 790 790 790 790 791 791 791 791 791 791 791 791 792 792 792 792 792 792 792 792 792 793 793 793 794 794 795 795 795 795 796 796 797 797 797 797 797 797 797 796
794 794 793 793 793 792 792 792 792 792 792 791 791 791 791 791 791 790 790 790 790 790 790 790 790 790 790 790 790 790 790 790 790 790 791 791 791 791 791 791 791 791 792 792 791 791 791 792 792 792 793 793 793 794 794 794 795 795 795 796 796 797 797 797 798 798 798 797 797
794 794 794 793 793 793 792 792 792 792 792 792 792 791 791 791 791 791 790 790 790 791 791 790 791 790 790 790 790 790 790 790 790 790 791 791 791 791 791 791 791 791 791 791 791 791 791 791 792 792 792 793 793 794 794 794 795 795 795 796 796 797 797 798 798 798 798 797 796
795 794 794 794 793 793 793 793 793 792 792 792 792 792 791 791 791 791 791 791 791 791 791 791 791 791 790 790 790 790 790 790 790 790 790 790 791 791 791 791 791 791 791 791 791 791 791 791 791 792 792 792 793 793 794 794 795 795 795 796 796 797 797 797 798 798 798 797 796
795 795 794 794 794 794 793 793 793 793 793 792 792 792 792 792 791 791 791 791 791 791 791 791 791 791 790 790 790 791 791 790 790 790 790 790 790 790 790 790 790 790 790 791 791 791 791 791 791 791 792 792 793 793 794 794 795 795 796 796 797 797 797 798 798 798 798 797 797
795 795 795 795 794 794 794 793 793 793 793 793 792 792 792 792 792 792 792 791 791 791 791 791 791 791 791 791 791 791 790 790 790 790 790 790 790 790 790 790 790 790 790 790 791 791 791 791 791 792 792 792 793 793 794 794 795 795 796 796 797 797 798 798 798 798 798 798 798
796 795 795 795 794 794 794 794 794 793 793 793 793 793 793 792 792 792 791 791 791 791 791 791 791 791 791 791 791 791 790 790 790 790 790 790 790 790 790 790 790 790 790 790 791 791 792 792 792 792 793 793 793 794 794 795 795 795 796 796 797 798 798 798 798 799 799 799 798
796 796 795 795 795 795 795 794 794 794 794 793 793 793 793 793 792 792 792 792 791 791 791 791 791 791 791 791 791 791 791 791 790 790 790 790 790 790 790 790 790 790 790 791 791 792 792 792 793 793 793 793 794 794 795 795 795 796 796 797 797 798 798 799 799 799 799 799 799
796 796 795 795 795 795 795 794 794 794 794 794 793 793 793 793 792 792 792 792 792 792 792 792 792 792 792 792 791 791 791 791 791 791 791 791 791 791 791 791 791 791 791 791 792 792 793 793 793 794 794 794 794 795 795 795 796 796 797 797 798 798 799 799 799 800 800 800 800
796 796 796 795 795 795 795 795 795 794 794 794 794 794 793 793 793 793 792 792 792 792 792 792 792 793 793 792 792 792 792 792 792 793 793 792 792 792 792 792 791 791 792 792 793 793 793 793 794 794 795 795 795 795 796 796 797 797 798 798 798 799 799 799 800 800 800 800 800
796 796 796 796 795 795 795 795 795 795 795 794 794 794 794 793 793 793 793 793 793 793 793 793 793 794 794 794 794 794 794 794 794 794 794 793 793 793 793 792 792 793 793 794 794 794 794 794 795 795 795 795 796 796 796 797 797 797 798 798 799 799 800 800 800 800 800 800 800
797 796 796 796 796 796 795 795 795 795 795 795 795 794 794 794 794 794 794 794 794 794 794 794 795 795 795 795 795 795 795 795 795 795 794 794 794 794 794 794 794 794 795 795 795 795 795 795 796 796 796 796 796 796 796 797 797 798 798 799 799 799 800 800 800 800 801 801 801
797 797 797 796 796 796 796 796 795 795 795 795 795 795 795 795 795 795 795 795 795 795 795 795 795 796 796 795 795 795 796 795 795 795 795 794 794 794 794 795 795 795 796 796 797 797 797 797 797 797 797 797 797 797 797 797 798 798 798 799 799 800 800 800 800 800 801 801 801
798 797 797 797 796 796 796 796 796 796 796 796 796 796 796 796 796 796 796 796 796 796 796 796 797 797 797 797 797 796 796 796 796 796 795 795 795 795 795 796 796 797 797 798 798 798 798 798 798 798 798 798 797 797 797 798 798 798 799 799 800 800 800 800 800 801 801 801 801
798 798 797 797 797 797 797 797 797 797 797 797 797 797 797 797 797 797 797 797 797 797 797 798 798 797 797 797 797 797 797 797 796 796 796 796 796 796 796 797 797 798 799 799 799 799 799 799 799 799 799 798 798 798 798 798 799 799 799 800 800 800 800 801 801 801 801 801 801
799 798 798 798 798 798 798 798 798 798 798 798 798 798 798 798 798 798 798 798 798 798 798 798 798 798 798 798 798 798 797 797 797 797 796 796 797 797 797 798 798 799 799 800 800 800 800 800 799 799 799 799 799 799 799 799 799 800 800 800 800 801 801 801 801 801 801 801 801
799 799 799 798 798 798 798 798 798 799 799 799 799 799 799 799 799 799 799 799 799 799 799 799 799 799 799 799 799 798 798 798 798 797 797 797 797 798 798 799 799 800 800 800 800 800 800 800 800 800 799 799 799 799 799 800 800 800 800 801 801 801 802 802 802 802 802 802 802
800 799 799 799 799 799 799 799 799 799 799 799 799 799 800 800 800 800 800 800 800 800 800 800 800 800 800 800 799 799 798 798 798 798 798 798 798 799 799 800 800 801 801 801 801 801 801 801 800 800 800 800 800 800 800 800 801 801 801 801 802 802 802 802 803 803 803 803 803
800 800 800 800 800 800 800 800 800 800 800 800 800 800 800 801 801 801 801 801 801 801 801 801 801 801 800 800 800 799 799 799 799 799 799 799 799 800 800 801 801 802 802 802 802 802 802 801 801 801 801 801 801 801 801 801 801 801 802 802 802 802 803 803 803 803 803 803 803
800 800 800 800 800 800 800 800 800 800 800 801 801 801 801 802 802 802 802 802 802 802 802 802 801 801 801 800 800 800 800 800 800 800 800 800 800 800 801 802 802 803 803 803 803 803 803 802 802 802 802 802 801 801 802 802 802 802 802 802 803 803 803 803 803 803 803 803 803
800 800 800 800 801 801 801 801 801 801 801 801 802 802 802 803 803 803 803 803 803 802 802 802 802 801 801 801 800 800 800 800 800 800 800 801 801 801 802 803 803 804 804 804 804 804 803 803 803 803 803 802 802 802 802 802 802 802 803 803 803 803 803 803 804 804 803 803 803
801 801 801 801 801 801 801 801 802 802 802 802 803 803 803 803 803 803 803 803 803 803 803 803 803 802 802 801 801 801 801 801 801 801 801 802 802 802 803 804 804 805 805 805 805 805 804 804 804 804 804 803 803 803 803 803 803 803 803 803 804 804 804 804 804 804 804 804 804
801 801 801 801 801 802 802 802 802 802 803 803 803 804 804 804 804 804 804 804 804 804 803 803 803 803 803 802 802 802 802 802 802 802 803 803 803 803 804 804 805 805 805 806 805 805 805 805 805 805 805 804 804 804 804 804 804 804 804 804 804 804 804 804 804 804 804 804 804
801 801 801 801 802 802 802 803 803 803 803 804 804 804 804 805 805 805 805 805 804 804 804 804 804 804 803 803 803 803 803 803 804 804 804 804 805 805 805 805 805 806 806 806 806 806 806 806 806 806 805 805 805 805 805 805 805 805 805 805 805 805 805 805 805 805 805 805 804
801 801 802 802 802 802 803 803 803 804 804 804 805 805 805 805 805 805 805 805 805 805 805 804 804 804 804 804 804 804 804 805 805 805 805 805 806 806 806 806 806 807 807 807 807 807 807 807 807 806 806 806 806 805 805 805 805 805 805 805 805 805 805 805 805 805 805 805 805
802 802 802 802 802 803 803 804 804 804 805 805 805 805 805 805 806 806 806 806 806 805 805 805 805 805 805 805 805 805 805 806 806 806 807 807 807 807 807 807 807 807 808 808 808 808 808 808 807 807 807 807 806 806 806 806 806 806 806 806 806 806 806 806 805 805 805 805 805
802 802 802 802 803 803 804 804 804 805 805 805 805 806 806 806 806 806 806 806 806 806 806 806 806 806 806 806 806 806 807 807 807 808 808 808 808 808 808 808 808 808 808 809 809 809 809 809 808 808 808 807 807 807 807 807 807 807 806 806 806 806 806 806 806 806 805 805 805